Cushing, OK

1:07 AM CDT on April 23, 2017 (GMT -0500)
Cushing Municipal

Weather History for KCUH - May, 2013

Change the Weather History Date:

Monday, May 27, 2013

  Actual Average Record
Temperature  
Mean Temperature 74 °F -  
Max Temperature 78 °F 83 °F 93 °F (1953)
Min Temperature 69 °F 59 °F 47 °F (1961)
Cooling Degree Days 8    
Growing Degree Days 24 (Base 50)    
Moisture  
Dew Point 70 °F    
Average Humidity 86    
Maximum Humidity 100    
Minimum Humidity 74    
Precipitation  
Precipitation 0.00 in - - ()
Sea Level Pressure  
Sea Level Pressure 29.82 in    
Wind  
Wind Speed 12 mph (South)    
Max Wind Speed 28 mph    
Max Gust Speed 33 mph    
Visibility 10 miles    
Events      
Averages and records for this station are not official NWS values.
T = Trace of Precipitation, MM = Missing Value Source: NWS Daily Summary

Daily Weather History Graph

Daily Weather History Graph

Search for Another Location

Airport or City:

Trip Planner

Search our weather history database for the weather conditions in past years. The results will help you decide how hot, cold, wet, or windy it might be!

Date:

Astronomy

May. 27, 2013 Rise Set
Actual Time 6:13 AM CDT 8:35 PM CDT
Civil Twilight 5:44 AM CDT 9:04 PM CDT
Nautical Twilight 5:08 AM CDT 9:40 PM CDT
Astronomical Twilight 4:28 AM CDT 10:20 PM CDT
Moon 11:17 PM CDT (5/27) 8:51 AM CDT (5/27)
Length of Visible Light 15h 20m
Length of Day
14h 21m
Waning Gibbous, 91% of the Moon is Illuminated
May 27
Waning Gibbous
May 31
Last Quarter
Jun 8
New
Jun 16
First Quarter
Jun 23
Full

Hourly Weather History & Observations

Time (CDT) Temp. Dew Point Humidity Pressure Visibility Wind Dir Wind Speed Gust Speed Precip Events Conditions
12:15 AM 71.6 °F 69.8 °F 94% 29.93 in 10.0 mi SSE 9.2 mph 18.4 mph N/A   Mostly Cloudy
12:35 AM 71.6 °F 69.8 °F 94% 29.92 in 10.0 mi SSE 9.2 mph - N/A   Overcast
12:55 AM 71.6 °F 69.8 °F 94% 29.91 in 10.0 mi SSE 9.2 mph 17.3 mph N/A   Overcast
1:15 AM 69.8 °F 69.8 °F 100% 29.91 in 10.0 mi South 8.1 mph - N/A   Mostly Cloudy
1:35 AM 69.8 °F 69.8 °F 100% 29.90 in 10.0 mi South 8.1 mph - N/A   Scattered Clouds
1:55 AM 69.8 °F 69.8 °F 100% 29.89 in 10.0 mi SSE 9.2 mph - N/A   Clear
2:15 AM 69.8 °F 69.8 °F 100% 29.88 in 10.0 mi South 9.2 mph - N/A   Clear
2:35 AM 69.8 °F 69.8 °F 100% 29.87 in 10.0 mi South 9.2 mph 17.3 mph N/A   Clear
2:55 AM 69.8 °F 69.8 °F 100% 29.86 in 10.0 mi South 10.4 mph 19.6 mph N/A   Clear
3:15 AM 69.8 °F 69.8 °F 100% 29.85 in 10.0 mi South 9.2 mph - N/A   Scattered Clouds
3:35 AM 69.8 °F 69.8 °F 100% 29.85 in 10.0 mi South 10.4 mph - N/A   Mostly Cloudy
3:55 AM 69.8 °F 69.8 °F 100% 29.85 in 10.0 mi South 11.5 mph 18.4 mph N/A   Scattered Clouds
4:15 AM 69.8 °F 69.8 °F 100% 29.85 in 10.0 mi South 10.4 mph 16.1 mph N/A   Scattered Clouds
4:35 AM 69.8 °F 69.8 °F 100% 29.86 in 10.0 mi South 9.2 mph - N/A   Scattered Clouds
4:55 AM 69.8 °F 69.8 °F 100% 29.87 in 10.0 mi South 4.6 mph - N/A   Scattered Clouds
5:15 AM 69.8 °F 69.8 °F 100% 29.87 in 10.0 mi SSE 5.8 mph - N/A   Scattered Clouds
5:35 AM 69.8 °F 69.8 °F 100% 29.87 in 10.0 mi South 9.2 mph - N/A   Scattered Clouds
5:55 AM 69.8 °F 69.8 °F 100% 29.87 in 7.0 mi South 8.1 mph 16.1 mph N/A   Clear
6:15 AM 69.8 °F 69.8 °F 100% 29.87 in 7.0 mi South 6.9 mph - N/A   Scattered Clouds
6:35 AM 69.8 °F 69.8 °F 100% 29.89 in 7.0 mi South 3.5 mph - N/A   Mostly Cloudy
6:55 AM 69.8 °F 69.8 °F 100% 29.89 in 7.0 mi South 5.8 mph - N/A   Mostly Cloudy
7:15 AM 69.8 °F 69.8 °F 100% 29.89 in 7.0 mi SSE 6.9 mph - N/A   Mostly Cloudy
7:35 AM 69.8 °F 69.8 °F 100% 29.88 in 10.0 mi South 9.2 mph - N/A   Mostly Cloudy
7:55 AM 71.6 °F 69.8 °F 94% 29.89 in 10.0 mi South 10.4 mph - N/A   Mostly Cloudy
8:15 AM 71.6 °F 69.8 °F 94% 29.88 in 10.0 mi South 10.4 mph 18.4 mph N/A   Mostly Cloudy
8:35 AM 73.4 °F 69.8 °F 88% 29.87 in 10.0 mi South 13.8 mph 21.9 mph N/A   Mostly Cloudy
8:55 AM 73.4 °F 69.8 °F 88% 29.87 in 10.0 mi South 11.5 mph 23.0 mph N/A   Scattered Clouds
9:15 AM 75.2 °F 69.8 °F 83% 29.87 in 10.0 mi South 15.0 mph 23.0 mph N/A   Scattered Clouds
9:35 AM 75.2 °F 69.8 °F 83% 29.87 in 10.0 mi South 13.8 mph 23.0 mph N/A   Mostly Cloudy
9:55 AM 77.0 °F 71.6 °F 83% 29.87 in 10.0 mi South 16.1 mph 25.3 mph N/A   Mostly Cloudy
10:15 AM 77.0 °F 69.8 °F 78% 29.87 in 10.0 mi South 17.3 mph 26.5 mph N/A   Scattered Clouds
10:35 AM 77.0 °F 69.8 °F 78% 29.86 in 10.0 mi South 17.3 mph 27.6 mph N/A   Scattered Clouds
10:55 AM 77.0 °F 71.6 °F 83% 29.86 in 10.0 mi South 19.6 mph 26.5 mph N/A   Scattered Clouds
11:15 AM 77.0 °F 69.8 °F 78% 29.86 in 10.0 mi SSW 21.9 mph 28.8 mph N/A   Mostly Cloudy
11:35 AM 75.2 °F 69.8 °F 83% 29.86 in 10.0 mi South 12.7 mph 26.5 mph N/A   Mostly Cloudy
11:55 AM 75.2 °F 69.8 °F 83% 29.86 in 10.0 mi SSW 21.9 mph 27.6 mph N/A   Mostly Cloudy
12:15 PM 77.0 °F 69.8 °F 78% 29.85 in 10.0 mi SSW 20.7 mph 29.9 mph N/A   Mostly Cloudy
12:35 PM 77.0 °F 69.8 °F 78% 29.86 in 10.0 mi South 15.0 mph 27.6 mph N/A   Scattered Clouds
12:55 PM 77.0 °F 69.8 °F 78% 29.85 in 10.0 mi South 16.1 mph 24.2 mph N/A   Scattered Clouds
1:15 PM 77.0 °F 69.8 °F 78% 29.85 in 10.0 mi South 19.6 mph 28.8 mph N/A   Mostly Cloudy
1:35 PM 77.0 °F 69.8 °F 78% 29.84 in 10.0 mi South 18.4 mph 25.3 mph N/A   Mostly Cloudy
1:55 PM 77.0 °F 69.8 °F 78% 29.83 in 10.0 mi South 17.3 mph 29.9 mph N/A   Mostly Cloudy
2:15 PM 78.8 °F 69.8 °F 74% 29.82 in 10.0 mi South 16.1 mph 31.1 mph N/A   Mostly Cloudy
2:35 PM 78.8 °F 69.8 °F 74% 29.81 in 10.0 mi South 17.3 mph 33.4 mph N/A   Mostly Cloudy
2:55 PM 77.0 °F 69.8 °F 78% 29.82 in 10.0 mi South 19.6 mph 31.1 mph N/A   Mostly Cloudy
3:15 PM 78.8 °F 69.8 °F 74% 29.81 in 10.0 mi South 23.0 mph 33.4 mph N/A   Mostly Cloudy
3:35 PM 78.8 °F 69.8 °F 74% 29.80 in 10.0 mi South 23.0 mph 33.4 mph N/A   Mostly Cloudy
3:55 PM 78.8 °F 69.8 °F 74% 29.80 in 10.0 mi South 27.6 mph 33.4 mph N/A   Mostly Cloudy
4:15 PM 78.8 °F 69.8 °F 74% 29.79 in 10.0 mi South 19.6 mph 29.9 mph N/A   Mostly Cloudy
4:35 PM 78.8 °F 69.8 °F 74% 29.78 in 10.0 mi South 20.7 mph 28.8 mph N/A   Overcast
4:55 PM 78.8 °F 71.6 °F 78% 29.78 in 10.0 mi South 16.1 mph 26.5 mph N/A   Mostly Cloudy
5:15 PM 78.8 °F 71.6 °F 78% 29.78 in 10.0 mi South 15.0 mph 24.2 mph N/A   Mostly Cloudy
5:35 PM 78.8 °F 71.6 °F 78% 29.77 in 10.0 mi South 16.1 mph 28.8 mph N/A   Mostly Cloudy
5:55 PM 78.8 °F 71.6 °F 78% 29.76 in 10.0 mi South 16.1 mph 26.5 mph N/A   Mostly Cloudy
6:15 PM 78.8 °F 69.8 °F 74% 29.75 in 10.0 mi South 17.3 mph 24.2 mph N/A   Mostly Cloudy
6:35 PM 78.8 °F 69.8 °F 74% 29.75 in 10.0 mi SSE 15.0 mph 31.1 mph N/A   Mostly Cloudy
6:55 PM 78.8 °F 69.8 °F 74% 29.74 in 10.0 mi South 12.7 mph 26.5 mph N/A   Scattered Clouds
7:15 PM 77.0 °F 69.8 °F 78% 29.73 in 10.0 mi SSE 12.7 mph 20.7 mph N/A   Clear
7:35 PM 77.0 °F 69.8 °F 78% 29.72 in 10.0 mi South 13.8 mph 25.3 mph N/A   Clear
7:55 PM 77.0 °F 69.8 °F 78% 29.74 in 10.0 mi South 11.5 mph 18.4 mph N/A   Clear
8:15 PM 77.0 °F 69.8 °F 78% 29.74 in 10.0 mi South 10.4 mph 18.4 mph N/A   Clear
8:35 PM 77.0 °F 69.8 °F 78% 29.75 in 10.0 mi South 10.4 mph - N/A   Clear
8:55 PM 77.0 °F 69.8 °F 78% 29.75 in 10.0 mi South 11.5 mph 18.4 mph N/A   Clear
9:15 PM 75.2 °F 69.8 °F 83% 29.76 in 10.0 mi South 12.7 mph 18.4 mph N/A   Clear
9:35 PM 75.2 °F 69.8 °F 83% 29.76 in 10.0 mi South 12.7 mph 18.4 mph N/A   Clear
9:55 PM 75.2 °F 69.8 °F 83% 29.74 in 10.0 mi SSE 10.4 mph 17.3 mph N/A   Clear
10:15 PM 75.2 °F 69.8 °F 83% 29.74 in 10.0 mi SSE 11.5 mph 18.4 mph N/A   Clear
10:35 PM 75.2 °F 69.8 °F 83% 29.72 in 10.0 mi South 13.8 mph 21.9 mph N/A   Clear
10:55 PM 75.2 °F 69.8 °F 83% 29.71 in 10.0 mi South 12.7 mph 19.6 mph N/A   Clear
11:15 PM 75.2 °F 69.8 °F 83% 29.70 in 10.0 mi South 15.0 mph 23.0 mph N/A   Clear
11:35 PM 75.2 °F 69.8 °F 83% 29.70 in 10.0 mi South 18.4 mph 32.2 mph N/A   Clear
11:55 PM 75.2 °F 69.8 °F 83% 29.70 in 10.0 mi South 16.1 mph 27.6 mph N/A   Clear